Current Weather Conditions: station 63103

sailwx.info

Wind from 190 at 29 knots

Wave height 1.6 meters (5 feet), 4 second period

Air temperature 12.4° C
Dewpoint 11.5° C

Last reported at 2016-Aug-30 01:00 UTC.
Time now 2016-Aug-30 03:14 UTC

Location: N 61°12' E 001°06'.
View on Google Maps.

See reports from other nearby stations

  
Tides and Currents Weather Stations Pressure Air Temp Water Temp Dewpoint Dewpoint Depression Visibility Wind Speed Wind Dir Waves Ship Positions
date/time (UTC)wind fromknots sea level pressurealtimeterstation pressurevisibilityair tempwater tempwave heightnotes
2016-Aug-30 01:00 190 29 12.4 1.6
2016-Aug-30 00:00 190 27 12.0 1.4
2016-Aug-29 23:00 200 23 12.1 1.2
2016-Aug-29 22:00 220 19 12.4 1.0
2016-Aug-29 21:00 210 17 12.6 1.0
2016-Aug-29 20:00 220 15 13.0 0.9
2016-Aug-29 19:00 220 11 13.0 1.0
2016-Aug-29 18:00 250 10 13.4 0.9
2016-Aug-29 13:00 260 12 15.2 1.0
2016-Aug-29 12:00 260 11 14.2 1.1
2016-Aug-29 11:00 270 10 13.4 1.0
2016-Aug-29 10:00 240 9 13.3 0.9
2016-Aug-29 09:00 240 7 12.9 1.0
2016-Aug-29 08:00 240 6 12.9 1.0
2016-Aug-29 07:00 240 4 13.0 1.1
2016-Aug-29 06:00 250 4 12.9 1.1
2016-Aug-29 05:00 280 3 12.7 1.1
2016-Aug-29 04:00 310 2 13.0 1.2
2016-Aug-29 03:00 320 4 13.0 1.2
2016-Aug-29 02:00 340 4 13.1 1.2
2016-Aug-29 01:00 350 5 13.2 1.3
2016-Aug-29 00:00 340 6 13.2 1.3
2016-Aug-28 23:00 350 5 13.0 1.5
2016-Aug-28 22:00 350 5 13.4 1.4
2016-Aug-28 21:00 350 6 13.9 1.4
2016-Aug-28 20:00 350 7 14.7 1.6
2016-Aug-28 19:00 360 6 15.8 1.6
2016-Aug-28 18:00 350 6 16.4 1.7
2016-Aug-28 17:00 010 5 16.5 1.5
2016-Aug-28 16:00 020 3 15.9 1.6
2016-Aug-28 15:00 040 3 15.3 1.6
2016-Aug-28 14:00 050 3 14.6 1.6
2016-Aug-28 13:00 040 3 13.8 1.5
2016-Aug-28 12:00 060 4 13.1 1.6
2016-Aug-28 11:00 090 3 13.3 1.7
2016-Aug-28 10:00 070 4 13.4 1.6
2016-Aug-28 09:00 100 3 13.1 1.7
2016-Aug-28 08:00 120 4 12.8 1.7
2016-Aug-28 07:00 110 6 12.6 1.6
2016-Aug-28 06:00 120 5 12.6 1.4
2016-Aug-28 05:00 110 4 12.7 1.4
2016-Aug-28 04:00 110 3 12.7 1.5
2016-Aug-28 03:00 140 2 12.7 1.3